Weather History for KFMN - November, 2013

Change the Weather History Date:

Thursday, November 7, 2013

  Actual Average Record
Temperature  
Mean Temperature 39 °F -  
Max Temperature 57 °F 54 °F 73 °F (1999)
Min Temperature 21 °F 30 °F 12 °F (2008)
Degree Days  
Heating Degree Days 26    
Moisture  
Dew Point 15 °F    
Average Humidity 41    
Maximum Humidity 68    
Minimum Humidity 10    
Precipitation  
Precipitation 0.00 in - - ()
Sea Level Pressure  
Sea Level Pressure 30.43 in    
Wind  
Wind Speed 6 mph (East)    
Max Wind Speed 10 mph    
Max Gust Speed -    
Visibility 10 miles    
Events      
Averages and records for this station are not official NWS values.
T = Trace of Precipitation, MM = Missing Value Source: NWS Daily Summary

Daily Weather History Graph

Daily Weather History Graph

Search for Another Location

Airport or City:

Trip Planner

Search our weather history database for the weather conditions in past years. The results will help you decide how hot, cold, wet, or windy it might be!

Date:

Astronomy

Nov. 07, 2013 Rise Set
Actual Time 6:42 AM MST 5:09 PM MST
Civil Twilight 6:15 AM MST 5:36 PM MST
Nautical Twilight 5:44 AM MST 6:07 PM MST
Astronomical Twilight 5:14 AM MST 6:38 PM MST
Moon 10:52 AM MST (11/7) 9:25 PM MST (11/7)
Length of Visible Light 11h 21m
Length of Day
10h 26m
Waxing Crescent, 23% of the Moon is Illuminated
Nov 7
Waxing Crescent
Nov 9
First Quarter
Nov 17
Full
Nov 25
Last Quarter
Dec 2
New

Hourly Weather History & Observations

Time (MST) Temp. Windchill Dew Point Humidity Pressure Visibility Wind Dir Wind Speed Gust Speed Precip Events Conditions
12:53 AM 28.0 °F 22.8 °F 12.0 °F 51% 30.53 in 10.0 mi East 4.6 mph - N/A   Clear
1:53 AM 27.0 °F 19.5 °F 12.9 °F 56% 30.53 in 10.0 mi East 6.9 mph - N/A   Clear
2:53 AM 25.0 °F 19.3 °F 12.9 °F 60% 30.53 in 10.0 mi East 4.6 mph - N/A   Clear
3:53 AM 21.9 °F 14.5 °F 10.0 °F 60% 30.54 in 10.0 mi ENE 5.8 mph - N/A   Clear
4:53 AM 23.0 °F 14.7 °F 12.9 °F 65% 30.56 in 10.0 mi East 6.9 mph - N/A   Clear
5:53 AM 23.0 °F 15.8 °F 12.9 °F 65% 30.57 in 10.0 mi East 5.8 mph - N/A   Clear
6:53 AM 23.0 °F 15.8 °F 14.0 °F 68% 30.58 in 10.0 mi East 5.8 mph - N/A   Clear
7:53 AM 28.9 °F 19.8 °F 17.1 °F 61% 30.57 in 10.0 mi East 10.4 mph - N/A   Clear
8:53 AM 33.1 °F 26.9 °F 17.1 °F 52% 30.54 in 10.0 mi ESE 6.9 mph - N/A   Clear
9:53 AM 41.0 °F 37.1 °F 19.0 °F 41% 30.54 in 10.0 mi East 5.8 mph - N/A   Clear
10:53 AM 45.0 °F 42.6 °F 16.0 °F 31% 30.52 in 10.0 mi ESE 4.6 mph - N/A   Clear
11:53 AM 48.9 °F - 14.0 °F 25% 30.45 in 10.0 mi Calm Calm - N/A   Clear
12:53 PM 54.0 °F - 15.1 °F 22% 30.38 in 10.0 mi Variable 3.5 mph - N/A   Clear
1:53 PM 55.0 °F - 15.1 °F 21% 30.34 in 10.0 mi SSE 5.8 mph - N/A   Clear
2:53 PM 57.0 °F - 15.1 °F 19% 30.32 in 10.0 mi ESE 4.6 mph - N/A   Clear
3:53 PM 55.9 °F - 15.1 °F 20% 30.32 in 10.0 mi Calm Calm - N/A   Clear
4:53 PM 53.1 °F - 16.0 °F 23% 30.31 in 10.0 mi NNW 4.6 mph - N/A   Clear
5:53 PM 46.9 °F - 15.1 °F 28% 30.32 in 10.0 mi NW 3.5 mph - N/A   Clear
6:53 PM 39.9 °F - 16.0 °F 38% 30.35 in 10.0 mi Calm Calm - N/A   Clear
7:53 PM 37.0 °F 32.4 °F 16.0 °F 42% 30.34 in 10.0 mi North 5.8 mph - N/A   Clear
8:53 PM 33.1 °F 28.7 °F 15.1 °F 48% 30.34 in 10.0 mi NE 4.6 mph - N/A   Clear
9:53 PM 33.1 °F 26.9 °F 16.0 °F 50% 30.31 in 10.0 mi NE 6.9 mph - N/A   Clear
10:53 PM 34.0 °F 26.0 °F 18.0 °F 52% 30.28 in 10.0 mi East 10.4 mph - N/A   Clear
11:53 PM 33.1 °F 25.5 °F 18.0 °F 54% 30.26 in 10.0 mi East 9.2 mph - N/A   Clear